Погода в Первомайском

Украина / Донецкая область     48°05′09″N   37°36′50″E
темп.,
°C
ветер,
м/с
пор.,
м/с
влажн.,
%
обл.,
%
осадки,
мм/ч
давл.,
гПа
погр.,
м
14 апреля, ср
ср1400:00+8юз117978 0.0 102219
03:00+9с1275100 0.0 102046
06:00+8зсз0085100 0.9 101938
09:00+10с118198 2.3 1018258
12:00+12зюз2268100 0.0 1017686
15:00+13зюз446495 0.0 1017811
18:00+13зюз34595 0.0 1016804
21:00+10ююз377626 0.0 1017226
15 апреля, чт
чт1500:00+8ююз2584100 0.0 1016157
03:00+7ююв268283 0.0 1016213
06:00+8ю398297 0.0 1016408
09:00+11ю576685 0.0 1016669
12:00+15ю675255 0.0 10151395
15:00+13ю7964100 0.1 10151168
18:00+12ю687536 0.5 10151011
21:00+9ю48900 0.6 1016298
16 апреля, пт
пт1600:00+8ю36935 0.0 1015182
03:00+6ююз25915 0.0 1016138
06:00+5ююз24925 0.0 1016113
09:00+10ю466525 0.0 1017866
12:00+11ююз5757100 0.0 10171612
15:00+11ю565862 0.1 10171066
18:00+11ююз465698 0.0 1017742
21:00+9ююз4767100 0.1 1019382
17 апреля, сб
сб1700:00+7ююз367870 0.0 1019182
03:00+5юз358528 0.0 1019150
06:00+4зюз35915 0.0 1020156
09:00+7зюз337013 0.0 1020625
12:00+9юз4357100 0.0 10201401
15:00+9з3462100 0.0 1021827
18:00+9зюз346798 0.0 1021719
21:00+8зюз2477100 0.1 1021229
18 апреля, вс
вс1800:00+8юз1273100 0.0 102197
03:00+8ю1174100 0.1 102148
06:00+8ююв1173100 0.0 102041
09:00+9ю1259100 0.0 1020680
12:00+11зсз1251100 0.0 10211250
15:00+12зсз124653 0.0 10201413
18:00+13з224693 0.0 10201620
21:00+11ссз2453100 0.0 1020235